DeKalb, IL

2:52 AM CST on January 22, 2018 (GMT -0600)
De Kalb Taylor Municipal

Weather History for KDKB - September, 2012

Change the Weather History Date:

Sunday, September 30, 2012

  Actual Average (KARR) Record (KARR)
Temperature  
Mean Temperature 56 °F -  
Max Temperature 69 °F 66 °F 85 °F (2007)
Min Temperature 45 °F 41 °F 32 °F (2004)
Degree Days  
Heating Degree Days 8    
Growing Degree Days 6 (Base 50)    
Moisture  
Dew Point 44 °F    
Average Humidity 67    
Maximum Humidity 93    
Minimum Humidity 33    
Precipitation  
Precipitation 0.00 in - - ()
Sea Level Pressure  
Sea Level Pressure 29.98 in    
Wind  
Wind Speed 7 mph (NE)    
Max Wind Speed 15 mph    
Max Gust Speed 18 mph    
Visibility 10 miles    
Events      
Averages and records for this station are not official NWS values.
T = Trace of Precipitation, MM = Missing Value Source: NWS Daily Summary

Daily Weather History Graph

Daily Weather History Graph

Search for Another Location

Airport or City:

Trip Planner

Search our weather history database for the weather conditions in past years. The results will help you decide how hot, cold, wet, or windy it might be!

Date:

Astronomy

Sep. 30, 2012 Rise Set
Actual Time 6:51 AM CDT 6:37 PM CDT
Civil Twilight 6:23 AM CDT 7:05 PM CDT
Nautical Twilight 5:51 AM CDT 7:37 PM CDT
Astronomical Twilight 5:18 AM CDT 8:10 PM CDT
Moon 6:39 PM CDT (9/30) 7:23 AM CDT (9/30)
Length of Visible Light 12h 41m
Length of Day
11h 46m
Full, 100% of the Moon is Illuminated
Sep 30
Full
Oct 8
Last Quarter
Oct 15
New
Oct 21
First Quarter
Oct 29
Full

Hourly Weather History & Observations

Time (CDT) Temp. Windchill Dew Point Humidity Pressure Visibility Wind Dir Wind Speed Gust Speed Precip Events Conditions
12:15 AM 51.8 °F - 46.8 °F 83% 30.00 in 10.0 mi NNE 4.6 mph - N/A   Clear
12:55 AM 51.4 °F - 47.7 °F 87% 29.99 in 10.0 mi NNE 6.9 mph - N/A   Clear
1:15 AM 49.3 °F - 46.0 °F 89% 29.99 in 10.0 mi NE 6.9 mph - N/A   Clear
1:35 AM 49.1 °F - 45.9 °F 89% 29.99 in 10.0 mi NNE 5.8 mph - N/A   Clear
1:55 AM 49.8 °F - 46.9 °F 90% 29.99 in 10.0 mi North 5.8 mph - N/A   Clear
2:15 AM 48.6 °F - 45.5 °F 89% 29.99 in 10.0 mi NW 4.6 mph - N/A   Clear
2:35 AM 46.9 °F - 44.1 °F 90% 29.99 in 10.0 mi NW 4.6 mph - N/A   Clear
2:55 AM 48.7 °F - 45.9 °F 90% 29.98 in 10.0 mi NNW 3.5 mph - N/A   Clear
3:15 AM 48.2 °F - 45.3 °F 90% 29.98 in 10.0 mi NNW 4.6 mph - N/A   Clear
3:35 AM 47.3 °F - 44.6 °F 90% 29.98 in 10.0 mi NW 4.6 mph - N/A   Clear
3:55 AM 47.3 °F - 44.6 °F 90% 29.98 in 10.0 mi NW 4.6 mph - N/A   Clear
4:15 AM 47.3 °F - 44.6 °F 90% 29.98 in 10.0 mi NNW 4.6 mph - N/A   Clear
4:35 AM 46.4 °F 45.2 °F 44.6 °F 93% 29.98 in 10.0 mi NNW 3.5 mph - N/A   Clear
4:55 AM 46.4 °F 45.2 °F 43.9 °F 91% 29.99 in 10.0 mi NW 3.5 mph - N/A   Clear
5:15 AM 46.4 °F 44.3 °F 43.7 °F 90% 29.99 in 10.0 mi NW 4.6 mph - N/A   Clear
5:35 AM 46.8 °F - 44.1 °F 90% 29.98 in 10.0 mi NW 5.8 mph - N/A   Clear
5:55 AM 46.9 °F - 44.2 °F 90% 29.98 in 10.0 mi NW 4.6 mph - N/A   Clear
6:15 AM 46.8 °F - 44.1 °F 90% 29.98 in 10.0 mi NW 4.6 mph - N/A   Clear
6:35 AM 46.4 °F 43.5 °F 43.7 °F 90% 29.98 in 7.0 mi NNW 5.8 mph - N/A   Clear
6:55 AM 45.9 °F 41.7 °F 43.3 °F 91% 29.98 in 5.0 mi NNW 8.1 mph - N/A   Clear
7:15 AM 45.5 °F 41.8 °F 42.8 °F 90% 29.99 in 5.0 mi North 6.9 mph - N/A   Clear
7:35 AM 46.9 °F - 44.2 °F 90% 29.99 in 5.0 mi North 5.8 mph - N/A   Clear
7:55 AM 49.5 °F - 46.8 °F 90% 29.99 in 7.0 mi North 6.9 mph - N/A   Clear
8:15 AM 51.8 °F - 49.1 °F 90% 29.99 in 10.0 mi North 8.1 mph - N/A   Clear
8:35 AM 53.4 °F - 50.4 °F 89% 29.99 in 10.0 mi North 9.2 mph - N/A   Clear
8:55 AM 55.4 °F - 52.0 °F 88% 29.99 in 10.0 mi North 8.1 mph - N/A   Clear
9:15 AM 58.1 °F - 53.2 °F 84% 30.00 in 10.0 mi NNE 10.4 mph 16.1 mph N/A   Clear
9:35 AM 59.0 °F - 53.6 °F 82% 30.01 in 10.0 mi NE 15.0 mph - N/A   Clear
9:55 AM 60.6 °F - 54.0 °F 79% 30.01 in 10.0 mi ENE 12.7 mph - N/A   Clear
10:15 AM 62.1 °F - 52.9 °F 72% 30.01 in 10.0 mi ENE 13.8 mph - N/A   Clear
10:35 AM 64.4 °F - 50.7 °F 61% 30.00 in 10.0 mi NE 15.0 mph 18.4 mph N/A   Clear
10:55 AM 64.4 °F - 49.3 °F 58% 30.00 in 10.0 mi ENE 12.7 mph - N/A   Clear
11:15 AM 65.1 °F - 48.2 °F 54% 30.00 in 10.0 mi ENE 12.7 mph - N/A   Clear
11:35 AM 65.7 °F - 47.8 °F 53% 29.99 in 10.0 mi ENE 12.7 mph 18.4 mph N/A   Clear
11:55 AM 66.9 °F - 46.6 °F 48% 29.99 in 10.0 mi ENE 10.4 mph 18.4 mph N/A   Clear
12:15 PM 67.3 °F - 44.4 °F 44% 29.99 in 10.0 mi NE 12.7 mph - N/A   Clear
12:35 PM 67.8 °F - 44.6 °F 43% 29.99 in 10.0 mi NE 12.7 mph 18.4 mph N/A   Clear
12:55 PM 67.1 °F - 44.6 °F 44% 29.98 in 10.0 mi NE 11.5 mph - N/A   Clear
1:15 PM 67.6 °F - 44.6 °F 43% 29.97 in 10.0 mi ENE 8.1 mph 16.1 mph N/A   Clear
1:35 PM 68.0 °F - 41.2 °F 38% 29.97 in 10.0 mi ENE 12.7 mph 17.3 mph N/A   Clear
1:55 PM 68.4 °F - 39.2 °F 34% 29.96 in 10.0 mi NE 10.4 mph - N/A   Clear
2:15 PM 68.5 °F - 40.5 °F 36% 29.96 in 10.0 mi ENE 11.5 mph 17.3 mph N/A   Clear
2:35 PM 68.5 °F - 39.7 °F 35% 29.96 in 10.0 mi ENE 6.9 mph - N/A   Clear
2:55 PM 68.0 °F - 39.2 °F 35% 29.95 in 10.0 mi ENE 13.8 mph 18.4 mph N/A   Clear
3:15 PM 68.9 °F - 38.3 °F 33% 29.95 in 10.0 mi East 12.7 mph - N/A   Clear
3:35 PM 68.0 °F - 38.5 °F 34% 29.94 in 10.0 mi East 5.8 mph - N/A   Clear
3:55 PM 68.2 °F - 39.0 °F 34% 29.94 in 10.0 mi ENE 9.2 mph - N/A   Clear
4:15 PM 67.1 °F - 40.3 °F 38% 29.94 in 10.0 mi ENE 11.5 mph - N/A   Clear
4:35 PM 67.1 °F - 39.7 °F 37% 29.94 in 10.0 mi ENE 9.2 mph - N/A   Clear
4:55 PM 66.2 °F - 40.8 °F 40% 29.94 in 10.0 mi NE 8.1 mph - N/A   Clear
5:15 PM 65.5 °F - 40.5 °F 40% 29.95 in 10.0 mi ENE 10.4 mph - N/A   Clear
5:35 PM 64.0 °F - 40.6 °F 42% 29.94 in 10.0 mi ENE 10.4 mph - N/A   Clear
5:55 PM 62.8 °F - 40.3 °F 44% 29.96 in 10.0 mi ENE 10.4 mph - N/A   Clear
6:15 PM 61.0 °F - 40.1 °F 46% 29.96 in 10.0 mi ENE 8.1 mph - N/A   Clear
6:35 PM 58.8 °F - 40.5 °F 51% 29.95 in 10.0 mi ENE 8.1 mph - N/A   Clear
6:55 PM 58.1 °F - 40.6 °F 52% 29.95 in 10.0 mi ENE 8.1 mph - N/A   Clear
7:15 PM 56.1 °F - 40.5 °F 56% 29.96 in 10.0 mi East 6.9 mph - N/A   Clear
7:35 PM 54.7 °F - 40.6 °F 59% 29.96 in 10.0 mi ENE 6.9 mph - N/A   Clear
7:55 PM 53.6 °F - 41.0 °F 62% 29.96 in 10.0 mi East 6.9 mph - N/A   Clear
8:15 PM 52.9 °F - 39.9 °F 61% 29.96 in 10.0 mi East 5.8 mph - N/A   Clear
8:35 PM 51.8 °F - 39.7 °F 63% 29.96 in 10.0 mi East 5.8 mph - N/A   Clear
8:55 PM 52.0 °F - 39.7 °F 63% 29.97 in 10.0 mi ENE 4.6 mph - N/A   Clear
9:15 PM 50.9 °F - 39.6 °F 65% 29.97 in 10.0 mi ENE 3.5 mph - N/A   Clear
9:35 PM 49.8 °F - 40.1 °F 69% 29.97 in 10.0 mi East 3.5 mph - N/A   Clear
9:55 PM 50.0 °F - 41.0 °F 71% 29.97 in 10.0 mi East 6.9 mph - N/A   Clear
10:15 PM 50.4 °F - 41.0 °F 70% 29.97 in 10.0 mi East 6.9 mph - N/A   Clear
10:35 PM 50.9 °F - 41.9 °F 71% 29.97 in 10.0 mi East 6.9 mph - N/A   Clear
11:15 PM 49.8 °F - 42.3 °F 75% 29.96 in 10.0 mi East 5.8 mph - N/A   Clear